カタログに戻る

COSMOS 970 DEB

運用中LEO
NORAD 65005·DEBRIS·🇷🇺 Russia

打ち上げ Dec 21, 1977 から Baikonur Cosmodrome

Loading…

次のパス (今後24時間)

TLE

経年Source: Space-Track

元期: Sep 9, 2026, 18:32 UTC

1 65005U 77121DS  26252.77222419  .00000051  00000-0  11502-3 0  9993
2 65005  65.8869 266.0185 0171179 159.4380 201.3687 13.79424413199862

AllMySatでCOSMOS 970 DEBをリアルタイム追跡

Download on the App Store